Weather History for Millington, TN

Change the Weather History Date:

Tuesday, November 20, 2012

  Actual Average Record
Temperature  
Mean Temperature 60 °F -  
Max Temperature 71 °F 59 °F 75 °F (2003)
Min Temperature 48 °F 41 °F 29 °F (2001)
Degree Days  
Heating Degree Days 6    
Growing Degree Days 10 (Base 50)    
Moisture  
Dew Point 48 °F    
Average Humidity 71    
Maximum Humidity 94    
Minimum Humidity 43    
Precipitation  
Precipitation 0.00 in - - ()
Sea Level Pressure  
Sea Level Pressure 30.14 in    
Wind  
Wind Speed 2 mph (West)    
Max Wind Speed 12 mph    
Max Gust Speed -    
Visibility 10 miles    
Events      
Averages and records for this station are not official NWS values.
T = Trace of Precipitation, MM = Missing Value Source: NWS Daily Summary

Daily Weather History Graph

Daily Weather History Graph

Search for Another Location

Airport:

Trip Planner

Search our weather history database for the weather conditions in past years. The results will help you decide how hot, cold, wet, or windy it might be!

Date:

Astronomy

Nov. 20, 2012 Rise Set
Actual Time 6:40 AM CST 4:50 PM CST
Civil Twilight 6:12 AM CST 5:17 PM CST
Nautical Twilight 5:41 AM CST 5:48 PM CST
Astronomical Twilight 5:11 AM CST 6:18 PM CST
Moon 12:21 PM CST (11/20) No Moon Set
Length of Visible Light 11h 04m
Length of Day
10h 10m
First Quarter, 51% of the Moon is Illuminated
Nov 20
First Quarter
Nov 28
Full
Dec 6
Last Quarter
Dec 13
New
Dec 19
First Quarter

Hourly Weather History & Observations

Time (CST) Temp. Dew Point Humidity Pressure Visibility Wind Dir Wind Speed Gust Speed Precip Events Conditions
12:55 AM 48.2 °F 44.6 °F 87% 30.17 in 10.0 mi Calm Calm - N/A   Scattered Clouds
1:15 AM 48.2 °F 44.6 °F 87% 30.17 in 10.0 mi Calm Calm - N/A   Scattered Clouds
1:35 AM 50.0 °F 44.6 °F 82% 30.18 in 10.0 mi North 3.5 mph - N/A   Scattered Clouds
1:55 AM 51.8 °F 42.8 °F 71% 30.17 in 10.0 mi Calm Calm - N/A   Scattered Clouds
2:15 AM 48.2 °F 44.6 °F 87% 30.17 in 10.0 mi Calm Calm - N/A   Overcast
2:35 AM 50.0 °F 42.8 °F 76% 30.17 in 10.0 mi Calm Calm - N/A   Mostly Cloudy
5:55 AM 50.0 °F 44.6 °F 82% 30.18 in 10.0 mi Calm Calm - N/A   Mostly Cloudy
6:55 AM 50.0 °F 44.6 °F 82% 30.18 in 10.0 mi Calm Calm - N/A   Scattered Clouds
7:55 AM 53.6 °F 44.6 °F 72% 30.18 in 10.0 mi SE 3.5 mph - N/A   Scattered Clouds
8:55 AM 59.0 °F 44.6 °F 59% 30.18 in 10.0 mi SSW 3.5 mph - N/A   Scattered Clouds
9:55 AM 66.2 °F 46.4 °F 49% 30.17 in 10.0 mi SW 5.8 mph - N/A   Scattered Clouds
10:55 AM 69.8 °F 46.4 °F 43% 30.16 in 10.0 mi West 9.2 mph - N/A   Clear
11:55 AM 71.6 °F 50.0 °F 46% 30.13 in 10.0 mi West 8.1 mph - N/A   Clear
12:55 PM 71.6 °F 50.0 °F 46% 30.10 in 10.0 mi SW 5.8 mph - N/A   Clear
2:55 PM 71.6 °F 53.6 °F 53% 30.07 in 10.0 mi WSW 9.2 mph - N/A   Scattered Clouds
3:55 PM 69.8 °F 53.6 °F 56% 30.08 in 10.0 mi SW 5.8 mph - N/A   Partly Cloudy
4:55 PM 64.4 °F 51.8 °F 64% 30.09 in 10.0 mi Calm Calm - N/A   Clear
5:55 PM 62.6 °F 51.8 °F 68% 30.10 in 10.0 mi Calm Calm - N/A   Clear
6:55 PM 59.0 °F 51.8 °F 77% 30.11 in 10.0 mi Calm Calm - N/A   Clear
7:55 PM 57.2 °F 51.8 °F 82% 30.12 in 10.0 mi Calm Calm - N/A   Clear
8:55 PM 53.6 °F 51.8 °F 94% 30.13 in 10.0 mi Calm Calm - N/A   Clear
9:55 PM 53.6 °F 50.0 °F 88% 30.13 in 10.0 mi NW 4.6 mph - N/A   Clear
10:55 PM 55.4 °F 48.2 °F 77% 30.14 in 10.0 mi NNW 6.9 mph - N/A   Clear
11:55 PM 55.4 °F 48.2 °F 77% 30.15 in 10.0 mi North 11.5 mph - N/A   Clear